STARLINK-35384, 65884

Orbit data source: Space-Track

STARLINK-35384, 65884 is a payload satellite owned by SpaceX/Seattle (US) in LEO that was launched on Tue, 07 Oct 2025 UTC via an FALCON 9 launch vehicle from the Air Force Eastern Test Range (AFETR). Payload-class satellites include a variety of spacecraft equipped with specific instruments for various scientific and technological missions. These include communications satellites like Starlink; space stations such as the ISS; scientific satellites like the Hubble; Earth observation satellites from companies like Planet Labs, Umbra, and HawkEye 360; GPS; miniature CubeSats for education and research; and military/defense satellites.

Loading next visibility...
Identifier
65884, 2025-224C
Orbit
LEO
Country
Flag of USUS
Related business
Manufacturer
SpaceX/Seattle
Mission
Operational Commercial Communications
Bus & Motor
STARLINK V2MO, Unknown motor
Mass
575 kg wet, ~530 kg dry
Launch date (UTC)
2025-10-07 (5 months ago)
Launch vehicle
FALCON 9
Launch site
Air Force Eastern Test Range (AFETR)
Object type
Payload
Rocket body
Debris
Shape & HBR
Box + 2 Pan, 17.7 m
Radar Cross Section
36.964 m²

Expand to show TLE details & history
Last TLE update: 11 hours ago

TLE from 11 hours ago
0 STARLINK-35384
1 65884U 25224C   26062.35764273  .00025495  00000-0  86968-3 0  9994
2 65884  53.1583  40.8476 0001115  84.4132 275.6996 15.30210687 23852
Epoch: 2026-03-03T08:35Z
TLE epoch observation values (Epoch: 2026-03-03T08:35:00.331Z)
Latitude
-0.00003°
Longitude
110.95834°
Altitude
476.007 km
Speed
7.629 km/s
True Right ascension
02h 43m 23s
True Declination
0° 00' 00"
Sunlit
Object was in daylight at epoch
Visualization orbit readout
Latitude
Unknown
Longitude
Unknown
Altitude
Unknown
Speed
Unknown
Apparent Right ascension
Unknown
Apparent Declination
Unknown
Sunlit
N/A
Visualization observer readout
Local Sidereal Time
23:10:23
Azimuth
Unknown
Elevation
Unknown
Doppler factor
Unknown
Orbital elements
Apogee altitude
476.204 km
Perigee altitude
474.676 km
Semi-major axis
6,853.577 km
Eccentricity
0.00011
Inclination
53.1583°
RAAN
40.8476°
Arg. of periapsis
84.4132°
True anomaly
275.68689°
Mean anomaly
275.6996°
Eccentric anomaly
275.69324°
Mean motion
3.82532 °/min
Orbital period
94.11 mins
BSTAR
0.00086968
Loading maneuver chart data...
Computing Atmospheric mass density...
Loading historical data...
Loading historical data...
Loading historical data...
Loading historical data...
Loading historical data...
Loading historical data...
Loading historical data...

Documentation

Showing up to 5 results
|